Showing default

RAPTOR4, 58956

Orbit data source: Space-Track

RAPTOR4, 58956 is a payload satellite owned by SDA (US) in LEO that was launched on Wed, 14 Feb 2024 UTC via an FALCON 9 launch vehicle from the Air Force Eastern Test Range (AFETR). Payload-class satellites include a variety of spacecraft equipped with specific instruments for various scientific and technological missions. These include communications satellites like Starlink; space stations such as the ISS; scientific satellites like the Hubble; Earth observation satellites from companies like Planet Labs, Umbra, and HawkEye 360; GPS; miniature CubeSats for education and research; and military/defense satellites.

Loading next visibility...
Identifier
58956, 2024-028B
Orbit
LEO
Country
Flag of USUS
Related business
Manufacturer
L3Harris SIS
Mission
Operational Defense Early Warn
Bus & Motor
TPL0-L3H, Unknown motor
Mass
~1,000 kg wet, ~1,000 kg dry
Launch date (UTC)
2024-02-14 (3 years ago)
Launch vehicle
FALCON 9
Launch site
Air Force Eastern Test Range (AFETR)
Object type
Payload
Rocket body
Debris
Shape & HBR
Box + 1 Pan, 1.0 m
Radar Cross Section
0.945 m², Large (>1 m²)

Expand to show TLE details & history
Last TLE update: 8 hours ago

TLE from 8 hours ago
0 RAPTOR4
1 58956U 24028B   26258.29334443 -.00000039  00000-0  41409-4 0  9999
2 58956  39.9921 348.9573 0013928  39.8559 320.3210 13.74158993129439
Epoch: 2026-09-15T07:02Z
TLE epoch observation values (Epoch: 2026-09-15T07:02:24.958Z)
Latitude
0.00001°
Longitude
-110.90805°
Altitude
976.272 km
Speed
7.369 km/s
True Right ascension
23h 15m 49s
True Declination
0° 00' 00"
Sunlit
Object was in full shadow at epoch
Visualization orbit readout
Latitude
Unknown
Longitude
Unknown
Altitude
Unknown
Speed
Unknown
Apparent Right ascension
Unknown
Apparent Declination
Unknown
Sunlit
N/A
Visualization observer readout
Local Sidereal Time
07:10:31
Azimuth
Unknown
Elevation
Unknown
Doppler factor
Unknown
Orbital elements
Apogee altitude
997.216 km
Perigee altitude
976.7 km
Semi-major axis
7,365.095 km
Eccentricity
0.00139
Inclination
39.9921°
RAAN
348.9573°
Arg. of periapsis
39.8559°
True anomaly
320.21896°
Mean anomaly
320.321°
Eccentric anomaly
320.26999°
Mean motion
3.43381 °/min
Orbital period
104.84 mins
BSTAR
0.000041409
Loading maneuver chart data...
Computing Atmospheric mass density...
Loading historical data...
Loading historical data...
Loading historical data...
Loading historical data...
Loading historical data...
Loading historical data...
Loading historical data...
Other satellites on launch #28 in the year 2024 (2024-02-14 UTC)

Documentation

Showing up to 5 results
|